{"data":{"norad_id":59037,"epoch":"2026-05-25T04:49:03.579168Z","epoch_age_seconds":54921,"freshness":"FRESH","line1":"1 59037U 24038Q   26145.20073587  .00006244  00000+0  23620-3 0  9992","line2":"2 59037  43.0035 315.4035 0001679 275.7398  84.3262 15.27587195126516","mean_motion":15.27587195,"eccentricity":0.0001679,"inclination_deg":43.0035,"raan_deg":315.4035,"arg_perigee_deg":275.7398,"mean_anomaly_deg":84.3262,"bstar":0.0002362,"rev_number":12651,"period_min":94.266304713297,"perigee_km":481.8755621776,"apogee_km":484.17954123406,"semimajor_km":6861.1645517058,"source":"CELESTRAK","updated_at":"2026-05-25T13:38:18.825078Z"}}